Home > Weather > Glasgow > Past weeks

Flag for United Kingdom Weather for the Past 2 Weeks in Glasgow, Scotland, United Kingdom

Now
36 °F

Passing clouds.


Feels Like: 27 °F
Forecast: N/A
Wind: 13 mph from East

Location: Glasgow Airport

Current Time: Feb 13, 2016 at 10:38:01 PM

Latest Report: Feb 13, 2016 at 9:50 PM


Visibility: N/A

Pressure: 29.39 "Hg

Humidity: 75%

Dew point: 28 °F

Location of GlasgowLocation

Historic Weather in Glasgow — Graph

°F

Glasgow Temperature Yesterday

Maximum temperature yesterday: 41 °F (at 12:50 PM)
Minimum temperature yesterday: 27 °F (at 2:20 AM)
Average temperature yesterday: 35 °F

High & Low Weather Summary for the Past Weeks

 TemperatureHumidityPressure
High52 °F (Feb 1, 2:20 AM)100% (Jan 31, 11:50 PM)30.15 "Hg (Jan 31, 11:50 PM)
Low27 °F (Feb 12, 2:20 AM)53% (Feb 2, 2:20 PM)28.50 "Hg (Feb 8, 4:20 AM)
Average41 °F84%29.38 "Hg
* Reported Jan 29 8:20 PM — Feb 13 8:50 PM, Glasgow, Weather by CustomWeather, © 2016

Note: Actual official high and low records may vary slightly from our data, if they occured in-between our weather recording intervals... More about our weather records

Advertising

Glasgow Weather History for the Previous 24 Hours

 ConditionsComfort  
Time TempWeatherWind HumidityBarometerVisibility
8:50 PM
Sat, Feb 13
36 °FChilly.13 mph75%29.39 "HgN/A
8:20 PM36 °FPassing clouds.12 mph75%29.39 "HgN/A
7:50 PM36 °FPassing clouds.13 mph75%29.39 "HgN/A
7:20 PM36 °FPassing clouds.9 mph81%29.39 "HgN/A
6:50 PM36 °FPassing clouds.10 mph87%29.39 "HgN/A
6:20 PM36 °FLight rain. Passing clouds.12 mph87%29.39 "HgN/A
5:50 PM36 °FLight rain. Partly cloudy.12 mph87%29.36 "HgN/A
5:20 PM36 °FLight rain. Passing clouds.16 mph87%29.36 "HgN/A
4:50 PM36 °FLight rain. Broken clouds.15 mph93%29.36 "HgN/A
4:20 PM36 °FLight rain. Partly sunny.15 mph93%29.36 "Hg5 mi
3:50 PM36 °FLight rain. Mostly cloudy.13 mph93%29.36 "HgN/A
3:20 PM36 °FLight rain. Broken clouds.17 mph93%29.33 "HgN/A
2:50 PM36 °FLight rain. Partly sunny.14 mph93%29.33 "HgN/A
2:20 PM36 °FLight rain. Mostly cloudy.14 mph93%29.33 "HgN/A
1:50 PM37 °FLight rain. Scattered clouds.15 mph93%29.33 "HgN/A
1:20 PM37 °FLight rain. Scattered clouds.14 mph93%29.33 "HgN/A
12:50 PM36 °FLight rain. More clouds than sun.10 mph93%29.33 "HgN/A
12:20 PM36 °FLight rain. Broken clouds.14 mph93%29.33 "Hg4 mi
11:50 AM36 °FRain. Partly sunny.14 mph93%29.33 "Hg2 mi
11:20 AM37 °FLight rain. Mostly cloudy.14 mph87%29.33 "HgN/A
10:50 AM37 °FLight rain. Partly sunny.13 mph87%29.33 "HgN/A
10:20 AM37 °FLight rain. Partly sunny.14 mph87%29.33 "HgN/A
9:50 AM37 °FPartly sunny.12 mph87%29.33 "HgN/A
9:20 AM37 °FPartly sunny.9 mph87%29.33 "HgN/A
8:50 AM37 °FPartly sunny.10 mph87%29.33 "HgN/A
8:20 AM36 °FLight rain. Partly sunny.10 mph93%29.33 "HgN/A
7:50 AM36 °FLight rain. Broken clouds.8 mph93%29.33 "HgN/A
7:20 AM36 °FLight rain. Passing clouds.8 mph93%29.33 "HgN/A
6:50 AM36 °FPassing clouds.8 mph93%29.33 "HgN/A
6:20 AM36 °FPassing clouds.9 mph93%29.33 "HgN/A
5:50 AM36 °FPassing clouds.8 mph87%29.33 "HgN/A
5:20 AM34 °FPassing clouds.6 mph93%29.33 "HgN/A
4:50 AM34 °FPassing clouds.7 mph93%29.36 "HgN/A
4:20 AM34 °FChilly.10 mph93%29.33 "HgN/A
3:50 AM34 °FPassing clouds.10 mph93%29.36 "HgN/A
3:20 AM34 °FChilly.12 mph93%29.36 "HgN/A
2:20 AM34 °FPassing clouds.7 mph93%29.39 "HgN/A
1:20 AM34 °FPassing clouds.7 mph93%29.39 "HgN/A
12:50 AM34 °FPassing clouds.8 mph93%29.39 "HgN/A
12:20 AM34 °FChilly.7 mph93%29.42 "Hg4 mi
11:50 PM
Fri, Feb 12
34 °FChilly.7 mph93%29.42 "Hg6 mi
11:20 PM34 °FChilly.8 mph93%29.42 "HgN/A
10:50 PM34 °FPassing clouds.7 mph93%29.42 "HgN/A
10:20 PM36 °FPassing clouds.6 mph93%29.42 "HgN/A
Weather by CustomWeather, © 2016

See weather overviewHow to use our weather pages